#timestamp,LO_Frequency,Hit,StdDev 
1537578015.4,286046998.9,N
1537578035.2,286046997.5,N
1537578055.1,286046997.1,N
1537578056.0,286046997.1,N
1537578075.8,286046999.0,N
1537578095.6,286046999.5,N
1537578115.5,286046999.4,N
1537578135.3,286046997.3,N
1537578155.2,286046998.8,N
1537578175.9,286046998.1,N
1537578195.7,286047000.8,N
1537578215.6,286046998.1,N
1537578235.4,286047000.5,N
1537578255.2,286047000.6,N
1537578275.1,286047001.8,N
1537578276.0,286047001.8,N
1537578295.8,286047001.9,N
1537578315.7,286047001.3,N
1537578335.5,286047002.0,N
1537578355.3,286047000.6,N
1537578375.2,286047000.9,N
1537578395.0,286047002.0,N
1537578395.9,286047002.0,N
1537578415.8,286047002.8,N
1537578435.6,286046998.6,N
1537578455.4,286047000.7,N
1537578475.3,286046999.1,N
1537578495.1,286046999.5,N
1537578515.9,286046999.1,N
1537578535.7,286046997.3,N
1537578555.5,286046998.4,N
1537578575.4,286047001.1,N
1537578595.2,286047001.5,N
1537578615.0,286047005.9,Y
1537578616.0,286047005.9,P
1537578635.8,286047005.6,N
1537578655.6,286047007.1,N
1537578675.5,286047005.8,N
1537578695.3,286047005.5,N
1537578715.1,286047005.7,N
1537578735.9,286047003.0,N
1537578755.7,286047004.8,N
1537578775.5,286047004.9,N
1537578795.4,286047005.5,N
1537578815.2,286047005.9,Y
1537578835.1,286046999.3,P
1537578836.0,286046999.3,N
1537578855.8,286046999.5,N
1537578875.6,286047000.7,N
1537578895.5,286046998.9,N
1537578915.3,286047001.0,N
1537578935.1,286046998.3,N
1537578955.9,286047000.6,N
1537578975.7,286046998.5,N
1537578995.6,286047000.5,N
1537579015.4,286047001.4,N
1537579035.2,286047002.2,N
1537579055.1,286047004.2,N
1537579056.0,286047004.2,N
1537579075.8,286047003.6,N
1537579095.7,286047003.0,N
1537579115.5,286047002.9,N
1537579135.3,286047003.3,N
1537579155.2,286047003.1,N
1537579175.9,286047002.5,N
1537579195.7,286047002.6,N
1537579215.6,286047002.5,N
1537579235.4,286047002.7,N
1537579255.3,286047002.8,N
1537579275.1,286047001.5,N
1537579276.0,286047001.5,N
1537579295.8,286047002.1,N
1537579315.7,286047002.1,N
1537579335.5,286047003.8,N
1537579355.3,286047005.7,Y
1537579375.2,286047004.3,P
1537579395.0,286047001.3,N
1537579395.9,286047001.3,N
1537579415.8,286047001.7,N
1537579435.6,286047001.5,N
1537579455.4,286047000.6,N
1537579475.3,286047000.5,N
1537579495.1,286047000.1,N
1537579515.8,286047001.9,N
1537579535.7,286047004.0,Y
1537579555.5,286047002.3,P
1537579575.4,286047002.2,P
1537579595.2,286046999.8,N
1537579615.0,286046999.9,N
1537579615.9,286046999.9,N
1537579635.8,286046999.9,N
1537579655.6,286047002.7,N
1537579675.4,286047001.5,N
1537579695.3,286047007.3,Y
1537579715.1,286047006.0,P
1537579735.9,286047003.4,N
1537579755.7,286047005.6,N
1537579775.5,286047004.4,N
1537579795.4,286047000.1,N
1537579815.2,286047000.2,N
1537579835.0,286046999.7,N
1537579835.9,286046999.7,N
1537579855.8,286046999.7,N
1537579875.6,286047002.2,N
1537579895.5,286047002.3,N
1537579915.3,286047000.4,N
1537579935.1,286047004.3,N
1537579955.9,286047003.3,N
1537579975.7,286047003.6,N
1537579995.5,286047003.3,N
1537580015.4,286047005.3,N
1537580035.2,286047005.0,N
1537580055.1,286047007.6,Y
1537580056.0,286047007.6,P
1537580075.8,286047001.3,N
1537580095.6,286047001.3,N
1537580115.5,286047002.2,N
1537580135.3,286047002.0,N
1537580155.2,286047001.5,N
1537580175.9,286047003.2,N
1537580195.7,286047004.4,N
1537580215.6,286047004.1,N
1537580235.4,286047005.0,N
1537580255.2,286047007.4,Y
1537580275.1,286047001.5,P
1537580276.0,286047001.5,N
1537580295.8,286047001.7,N
1537580315.7,286047002.7,Y
1537580335.5,286046998.6,P
1537580355.3,286047000.8,N
1537580375.2,286047000.0,N
1537580395.0,286047001.9,N
1537580395.9,286047001.9,N
1537580415.8,286047000.0,N
1537580435.6,286047001.3,N
1537580455.4,286047000.0,N
1537580475.3,286047001.6,N
1537580495.1,286047001.9,N
1537580515.8,286047002.2,N
1537580535.7,286047002.0,N
1537580555.5,286047004.4,Y
1537580575.4,286047002.3,P
1537580595.2,286047000.1,N
1537580615.0,286047002.2,N
1537580615.9,286047002.2,N
1537580635.8,286046999.9,N
1537580655.6,286047002.5,N
1537580675.4,286047002.5,N
1537580695.3,286047002.2,N
1537580715.1,286047001.6,N
1537580735.9,286047001.8,N
1537580755.7,286047003.7,Y
1537580775.5,286047001.4,P
1537580795.4,286047002.3,P
1537580815.2,286047002.6,P
1537580835.0,286047000.4,N
1537580835.9,286047000.4,N
1537580855.8,286046998.3,N
1537580875.6,286047000.2,N
1537580895.5,286046999.0,N
1537580915.3,286046998.9,N
1537580935.1,286046998.9,N
1537580955.9,286046996.7,N
1537580975.7,286046998.8,N
1537580995.5,286047000.7,N
1537581015.4,286047000.3,N
1537581035.2,286046999.9,N
1537581055.1,286047001.9,N
1537581056.0,286047001.9,N
1537581075.8,286047001.9,N
1537581095.6,286047003.4,N
1537581115.5,286047004.2,N
1537581135.3,286047003.4,N
1537581155.1,286047006.0,Y
1537581175.9,286047003.3,P
1537581195.7,286047003.7,N
1537581215.6,286047003.6,N
1537581235.4,286047004.2,Y
1537581255.2,286047000.2,P
1537581275.1,286047004.0,P
1537581276.0,286047004.0,N
1537581295.8,286046997.0,N
1537581315.6,286046999.4,N
1537581335.5,286046999.3,N
1537581355.3,286046998.7,N
1537581375.2,286047000.8,N
1537581395.9,286047000.1,N
1537581415.7,286047000.8,N
1537581435.6,286047000.9,N
1537581455.4,286046998.6,N
1537581475.3,286047000.6,N
1537581495.1,286047001.5,N
1537581496.0,286047001.5,N
1537581515.8,286047002.3,N
1537581535.7,286047002.2,N
1537581555.5,286047001.9,N
1537581575.3,286047000.5,N
1537581595.2,286047000.1,N
